Powrót do katalogu

KUIPER-00025

AktywnyŁącznośćLEO
NORAD 63739·PAYLOAD·🇺🇸 United States

Wystrzelony Apr 28, 2025 z Cape Canaveral Space Force Station

Loading…

Następne Przeloty (najbliższe 24 godziny)

TLE

ŚwieżeSource: CelesTrak SupGP

Epoka: Sep 14, 2026, 23:03 UTC

1 63739C 25088R   26257.96048611  .00002270  00000+0  29722-3 0  2570
2 63739  51.9038 343.6922 0000542  89.6371 193.4911 14.79922457    19

Śledź KUIPER-00025 w czasie rzeczywistym z AllMySat

Download on the App Store